Date String (YYYY-MM-DD hh:mm:ss) UTC,Instrument flags,Ambient pressure (hPa),Sample flow (lpm),Bypass flow (lpm),Sample temperature (°C),Ambient temperature (°C),ASC tube jacket temperature (°C),LED temperature (°C),Box temperature (°C),Sample RH (%),Span deviation,Mass concentration (μg/m³),Mass concentration (μg/m³),Mass concentration (μg/m³)
DateTimeUTC,F1_M11,P_M11,Q1_M11,Q2_M11,T1_M11,T2_M11,T3_M11,T4_M11,T5_M11,U1_M11,ZSPAN_M11,X0_M11,X2_M11,X1_M11
2021-10-27 19:00:00,,0822.4,5.00,0.00,27.1,26.0,00.0,36.2,28.7,08.1,0000.0,0002.35,0001.07,0000.59
2021-10-27 19:01:00,,0822.4,5.01,0.00,27.1,26.0,00.0,36.2,28.7,08.1,0000.0,0002.23,0001.06,0000.59
2021-10-27 19:02:00,,0822.4,4.99,0.00,27.1,26.0,00.0,36.2,28.7,08.1,0000.0,0002.08,0001.03,0000.60
2021-10-27 19:03:00,,0822.4,5.01,0.00,27.1,26.0,00.0,36.2,28.7,08.1,0000.0,0001.98,0000.98,0000.60
2021-10-27 19:04:00,,0822.3,5.00,0.00,27.1,26.0,00.0,36.2,28.7,08.1,0000.0,0002.37,0001.06,0000.60
2021-10-27 19:05:00,,0822.4,4.99,0.00,27.1,25.9,00.0,36.2,28.7,08.1,0000.0,0002.63,0001.16,0000.61
2021-10-27 19:06:00,,0822.3,5.00,0.00,27.0,25.9,00.0,36.2,28.7,08.0,0000.0,0003.60,0001.13,0000.61
2021-10-27 19:07:00,,0822.4,4.99,0.00,27.0,26.0,00.0,36.2,28.7,08.0,0000.0,0003.59,0001.12,0000.61
2021-10-27 19:08:00,,0822.4,4.99,0.00,27.1,26.0,00.0,36.2,28.7,08.0,0000.0,0003.62,0001.13,0000.61
2021-10-27 19:09:00,,0822.4,5.00,0.00,27.1,26.0,00.0,36.2,28.7,08.0,0000.0,0003.61,0001.12,0000.61
2021-10-27 19:10:00,,0822.5,5.01,0.00,27.1,26.0,00.0,36.2,28.7,08.0,0000.0,0003.74,0001.16,0000.62
2021-10-27 19:11:00,,0822.4,5.00,0.00,27.1,26.0,00.0,36.2,28.8,08.1,0000.0,0005.09,0001.31,0000.63
2021-10-27 19:12:00,,0822.4,4.99,0.00,27.1,26.0,00.0,36.2,28.8,08.1,0000.0,0005.71,0001.39,0000.64
2021-10-27 19:13:00,,0822.3,5.00,0.00,27.1,26.0,00.0,36.2,28.8,08.1,0000.0,0005.81,0001.45,0000.64
2021-10-27 19:14:00,,0822.4,5.01,0.00,27.1,26.0,00.0,36.2,28.8,07.9,0000.0,0005.91,0001.49,0000.64
2021-10-27 19:15:00,,0822.4,5.00,0.00,27.1,26.0,00.0,36.2,28.8,07.9,0000.0,0005.71,0001.44,0000.64
2021-10-27 19:16:00,,0822.4,4.99,0.00,27.1,26.0,00.0,36.2,28.8,08.1,0000.0,0005.25,0001.28,0000.63
2021-10-27 19:17:00,,0822.4,5.00,0.00,27.1,26.0,00.0,36.2,28.8,08.1,0000.0,0004.33,0001.27,0000.63
2021-10-27 19:18:00,,0822.4,5.01,0.00,27.1,26.0,00.0,36.2,28.8,08.2,0000.0,0004.98,0001.26,0000.62
2021-10-27 19:19:00,,0822.4,4.99,0.00,27.1,26.0,00.0,36.2,28.8,08.2,0000.0,0005.31,0001.24,0000.61
2021-10-27 19:20:00,,0822.4,5.00,0.00,27.1,26.0,00.0,36.2,28.7,08.2,0000.0,0005.51,0001.25,0000.60
2021-10-27 19:21:00,,0822.4,4.99,0.00,27.1,26.0,00.0,36.2,28.8,08.3,0000.0,0005.94,0001.21,0000.60
2021-10-27 19:22:00,,0822.4,5.00,0.00,27.1,26.0,00.0,36.2,28.8,08.3,0000.0,0005.20,0001.14,0000.60
2021-10-27 19:23:00,,0822.4,5.01,0.00,27.1,26.0,00.0,36.2,28.8,08.1,0000.0,0004.13,0001.04,0000.59
2021-10-27 19:24:00,,0822.5,4.99,0.00,27.1,26.0,00.0,36.2,28.8,08.1,0000.0,0004.10,0001.02,0000.58
2021-10-27 19:25:00,,0822.4,4.99,0.00,27.1,26.0,00.0,36.2,28.8,08.2,0000.0,0004.04,0001.01,0000.59
2021-10-27 19:26:00,,0822.4,5.00,0.00,27.1,26.0,00.0,36.2,28.8,08.3,0000.0,0003.96,0001.02,0000.60
2021-10-27 19:27:00,,0822.4,5.01,0.00,27.1,26.0,00.0,36.2,28.9,08.1,0000.0,0004.06,0001.06,0000.61
2021-10-27 19:28:00,,0822.3,5.00,0.00,27.1,26.1,00.0,36.2,28.9,08.2,0000.0,0004.28,0001.10,0000.62
2021-10-27 19:29:00,,0822.4,5.00,0.00,27.1,26.1,00.0,36.2,28.8,08.2,0000.0,0003.93,0001.14,0000.63
2021-10-27 19:30:00,,0822.4,4.99,0.00,27.1,26.1,00.0,36.2,28.8,08.2,0000.0,0004.44,0001.17,0000.65
2021-10-27 19:31:00,,0822.4,5.00,0.00,27.1,26.1,00.0,36.2,28.8,08.2,0000.0,0004.31,0001.16,0000.66
2021-10-27 19:32:00,,0822.4,5.00,0.00,27.1,26.1,00.0,36.2,28.8,08.3,0000.0,0003.87,0001.20,0000.67
2021-10-27 19:33:00,,0822.4,4.99,0.00,27.1,26.1,00.0,36.2,28.8,08.3,0000.0,0003.82,0001.19,0000.67
2021-10-27 19:34:00,,0822.4,4.99,0.00,27.1,26.0,00.0,36.2,28.8,08.3,0000.0,0003.86,0001.20,0000.67
2021-10-27 19:35:00,,0822.4,5.00,0.00,27.1,26.0,00.0,36.2,28.8,08.3,0000.0,0003.86,0001.16,0000.67
2021-10-27 19:36:00,,0822.4,5.00,0.00,27.1,26.0,00.0,36.2,28.8,08.4,0000.0,0003.80,0001.14,0000.67
2021-10-27 19:37:00,,0822.4,4.99,0.00,27.1,26.0,00.0,36.2,28.8,08.4,0000.0,0003.83,0001.16,0000.66
2021-10-27 19:38:00,,0822.4,5.01,0.00,27.1,26.0,00.0,36.2,28.8,08.3,0000.0,0003.69,0001.12,0000.66
2021-10-27 19:39:00,,0822.4,5.01,0.00,27.1,26.0,00.0,36.2,28.8,08.3,0000.0,0003.46,0001.07,0000.65
2021-10-27 19:40:00,,0822.4,5.00,0.00,27.1,26.0,00.0,36.2,28.8,08.3,0000.0,0003.16,0001.00,0000.64
2021-10-27 19:41:00,,0822.4,5.00,0.00,27.1,26.0,00.0,36.2,28.8,08.3,0000.0,0002.20,0000.97,0000.63
2021-10-27 19:42:00,,0822.4,4.99,0.00,27.1,25.9,00.0,36.2,28.8,08.3,0000.0,0001.86,0000.95,0000.63
2021-10-27 19:43:00,,0822.4,5.00,0.00,27.1,26.0,00.0,36.2,28.8,08.4,0000.0,0001.81,0000.93,0000.62
2021-10-27 19:44:00,,0822.4,5.01,0.00,27.1,25.9,00.0,36.2,28.8,08.4,0000.0,0002.52,0000.90,0000.62
2021-10-27 19:45:00,,0822.4,4.99,0.00,27.1,25.9,00.0,36.2,28.8,08.5,0000.0,0003.17,0000.91,0000.62
2021-10-27 19:46:00,,0822.4,5.00,0.00,27.1,25.9,00.0,36.2,28.8,08.5,0000.0,0003.17,0000.92,0000.62
2021-10-27 19:47:00,,0822.4,4.99,0.00,27.1,25.9,00.0,36.2,28.8,08.5,0000.0,0003.12,0000.92,0000.62
2021-10-27 19:48:00,,0822.4,5.00,0.00,27.1,25.9,00.0,36.2,28.8,08.6,0000.0,0003.17,0000.87,0000.61
2021-10-27 19:49:00,,0822.3,5.01,0.00,27.1,25.9,00.0,36.2,28.8,08.6,0000.0,0004.02,0000.87,0000.62
2021-10-27 19:50:00,,0822.4,5.00,0.00,27.1,26.0,00.0,36.2,28.8,08.5,0000.0,0004.14,0000.92,0000.63
2021-10-27 19:51:00,,0822.4,5.02,0.00,27.1,26.0,00.0,36.2,28.8,08.5,0000.0,0004.30,0000.99,0000.65
2021-10-27 19:52:00,,0822.4,5.01,0.00,27.1,26.0,00.0,36.2,28.8,08.5,0000.0,0004.32,0001.00,0000.65
2021-10-27 19:53:00,,0822.4,4.99,0.00,27.1,26.0,00.0,36.2,28.8,08.6,0000.0,0004.31,0001.01,0000.65
2021-10-27 19:54:00,,0822.4,4.99,0.00,27.1,26.0,00.0,36.2,28.8,08.6,0000.0,0004.44,0001.04,0000.66
2021-10-27 19:55:00,,0822.4,5.00,0.00,27.1,26.0,00.0,36.2,28.8,08.5,0000.0,0003.99,0001.06,0000.66
2021-10-27 19:56:00,,0822.4,5.01,0.00,27.1,26.0,00.0,36.2,28.8,08.6,0000.0,0002.97,0001.01,0000.66
2021-10-27 19:57:00,,0822.4,4.99,0.00,27.1,26.0,00.0,36.2,28.8,08.5,0000.0,0002.83,0000.99,0000.66
2021-10-27 19:58:00,,0822.4,5.00,0.00,27.1,26.0,00.0,36.2,28.8,08.6,0000.0,0002.86,0001.00,0000.67
2021-10-27 19:59:00,,0822.4,4.99,0.00,27.1,26.0,00.0,36.2,28.8,08.6,0000.0,0002.74,0001.04,0000.67
